Jerome, ID

9:55 PM MDT on April 24, 2017 (GMT -0600)
Jerome County

Weather History for KJER - January, 2014

Change the Weather History Date:

Saturday, January 18, 2014

  Actual Average Record
Temperature  
Mean Temperature 34 °F 26 °F  
Max Temperature 45 °F 33 °F 50 °F (1920)
Min Temperature 22 °F 20 °F -13 °F (1984)
Degree Days  
Heating Degree Days 31 39  
Month to date heating degree days 585 702  
Since 1 July heating degree days 3369 3432  
Cooling Degree Days 0 0  
Month to date cooling degree days 0 0  
Year to date cooling degree days 0 0  
Moisture  
Dew Point 23 °F    
Average Humidity 66    
Maximum Humidity 92    
Minimum Humidity 40    
Precipitation  
Precipitation 0.00 in 0.02 in 0.74 in (2012)
Month to date precipitation 0.26 0.76  
Year to date precipitation 0.26 0.76  
Sea Level Pressure  
Sea Level Pressure 30.42 in    
Wind  
Wind Speed 9 mph (ENE)    
Max Wind Speed 16 mph    
Max Gust Speed 22 mph    
Visibility 10 miles    
Events      
T = Trace of Precipitation, MM = Missing Value Source: NWS Daily Summary

Daily Weather History Graph

Daily Weather History Graph

Search for Another Location

Airport or City:

Trip Planner

Search our weather history database for the weather conditions in past years. The results will help you decide how hot, cold, wet, or windy it might be!

Date:

Astronomy

Jan. 18, 2014 Rise Set
Actual Time 8:03 AM MST 5:33 PM MST
Civil Twilight 7:32 AM MST 6:04 PM MST
Nautical Twilight 6:58 AM MST 6:38 PM MST
Astronomical Twilight 6:24 AM MST 7:12 PM MST
Moon 8:23 PM MST (1/18) 9:01 AM MST (1/18)
Length of Visible Light 10h 31m
Length of Day
9h 29m
Waning Gibbous, 94% of the Moon is Illuminated
Jan 18
Waning Gibbous
Jan 23
Last Quarter
Jan 30
New
Feb 6
First Quarter
Feb 14
Full

Hourly Weather History & Observations

Time (MST) Temp. Windchill Dew Point Humidity Pressure Visibility Wind Dir Wind Speed Gust Speed Precip Events Conditions
12:53 AM 25.0 °F 14.2 °F 21.9 °F 88% 30.42 in 10.0 mi East 11.5 mph - N/A   Clear
1:53 AM 25.0 °F 14.8 °F 21.9 °F 88% 30.42 in 10.0 mi ENE 10.4 mph - N/A   Clear
2:53 AM 24.1 °F 15.2 °F 21.9 °F 91% 30.43 in 10.0 mi ENE 8.1 mph - N/A   Clear
3:53 AM 25.0 °F 13.6 °F 21.9 °F 88% 30.42 in 10.0 mi ENE 12.7 mph - N/A   Clear
4:53 AM 25.0 °F 13.6 °F 21.0 °F 85% 30.42 in 10.0 mi ENE 12.7 mph - N/A   Clear
5:53 AM 24.1 °F 12.5 °F 19.9 °F 84% 30.44 in 10.0 mi East 12.7 mph - N/A   Clear
6:53 AM 24.1 °F 12.5 °F 21.0 °F 88% 30.45 in 10.0 mi ENE 12.7 mph - N/A   Clear
7:53 AM 21.9 °F 11.0 °F 19.0 °F 89% 30.48 in 10.0 mi NE 10.4 mph - N/A   Clear
8:53 AM 26.1 °F 14.5 °F 19.9 °F 78% 30.46 in 10.0 mi ENE 13.8 mph - N/A   Clear
9:53 AM 28.0 °F 17.0 °F 21.0 °F 75% 30.50 in 10.0 mi NE 13.8 mph - N/A   Clear
10:53 AM 30.9 °F 20.2 °F 24.1 °F 76% 30.49 in 10.0 mi ENE 15.0 mph - N/A   Clear
11:53 AM 35.1 °F 26.4 °F 24.1 °F 64% 30.47 in 10.0 mi East 12.7 mph - N/A   Clear
12:53 PM 39.9 °F 34.5 °F 25.0 °F 55% 30.44 in 10.0 mi ENE 8.1 mph - N/A   Clear
1:53 PM 42.1 °F 37.7 °F 26.1 °F 53% 30.40 in 10.0 mi ENE 6.9 mph - N/A   Clear
2:53 PM 43.0 °F 40.3 °F 25.0 °F 49% 30.39 in 10.0 mi ESE 4.6 mph - N/A   Clear
3:53 PM 44.1 °F 42.5 °F 21.9 °F 42% 30.38 in 10.0 mi Variable 3.5 mph - N/A   Clear
4:53 PM 43.0 °F - 23.0 °F 45% 30.38 in 10.0 mi Calm Calm - N/A   Clear
5:53 PM 34.0 °F - 23.0 °F 64% 30.42 in 10.0 mi Calm Calm - N/A   Clear
6:53 PM 28.9 °F 25.2 °F 23.0 °F 78% 30.42 in 10.0 mi NE 3.5 mph - N/A   Clear
7:53 PM 32.0 °F 25.6 °F 21.9 °F 66% 30.41 in 10.0 mi East 6.9 mph - N/A   Clear
8:53 PM 32.0 °F 23.6 °F 25.0 °F 75% 30.39 in 10.0 mi East 10.4 mph - N/A   Clear
9:53 PM 32.0 °F 24.2 °F 24.1 °F 73% 30.39 in 10.0 mi ENE 9.2 mph - N/A   Clear
10:53 PM 30.0 °F 21.7 °F 24.1 °F 79% 30.39 in 10.0 mi NE 9.2 mph - N/A   Clear
11:53 PM 30.0 °F 20.0 °F 24.1 °F 79% 30.38 in 10.0 mi ENE 12.7 mph - N/A   Clear